sat.trackr.live / text

‹ back to catalog

STARLINK-37820

NORAD 69423 · 2026-126D

PAYLOAD ACTIVE UNKNOWN

§ Identity

Operator
Country
US
Launch date
2026-06-07
Launch site
AFWTR
Launch vehicle
Mass (kg)
RCS (m²)

Purposes: comms

External: N2YO · Heavens-Above · Gunter

§ Orbital elements

Epoch: 2026-09-19T09:59:29.475168Z

Period
93.91 min
Inclination
97.2847°
Eccentricity
0.0001955
Mean motion
15.33440833 rev/d
Perigee alt
464.2 km
Apogee alt
466.9 km
Semi-major
6,843.7 km
B*
2.9182e-4
RAAN
123.5976°
Arg perigee
87.8942°
Mean anomaly
272.2525°
Rev number
1,735

§ Raw data

STARLINK-378201 69423U 26126D   26262.41631337  .00009357  00000+0  29182-3 0  99952 69423  97.2847 123.5976 0001955  87.8942 272.2525 15.33440833 17359

JSON: /api/v1/satellites/69423 · /tle

For live sub-satellite position, see the globe view (requires WebGL).

§ Visibility from observer

Set your observer location to see the next 7 days of passes ≥ 10°. The values pass through the URL so the page stays shareable.

No JS? Fill the form by hand. The geolocation button needs JavaScript.